Powrót do katalogu

BREEZE-M DEB

AktywnyHEO
NORAD 38600·DEBRIS·🇷🇺 Russia

Wystrzelony Mar 14, 2008 z Baikonur Cosmodrome

Loading…

Następne Przeloty (najbliższe 24 godziny)

TLE

ŚwieżeSource: Space-Track

Epoka: Sep 14, 2026, 04:22 UTC

1 38600U 08011AX  26257.18250186  .00000821  00000-0  14686-2 0  9998
2 38600  48.9084 148.4670 6542551  61.4846 348.6068  3.14936014177369

Śledź BREEZE-M DEB w czasie rzeczywistym z AllMySat

Download on the App Store